Location: Waco, TX
(31.5480°N, 97.1670°W)
Time: 04:01:44
(UTC-06:00)

ISS - Pass Details

Date: 22 November 2017
Orbit: 401 x 407 km, 51.6° (Epoch: 18 November)

Event Time Altitude Azimuth Distance (km) Brightness Sun altitude
Rises 19:19:22 0° 204° (SSW) 2,307 0.5 -23.8°
Reaches altitude 10° 19:21:35 10° 193° (SSW) 1,451 -0.8 -24.3°
Enters shadow 19:21:49 12° 191° (S) 1,364 -1.0 -24.3°
Maximum altitude 19:24:28 30° 130° (SE) 752 - -24.9°
Drops below altitude 10° 19:27:23 10° 67° (ENE) 1,456 - -25.5°
Sets 19:29:36 0° 56° (NE) 2,317 - -25.9°
